This is the latest recevied weather packets stored in our database for station/object W1GK. If no packets are shown the sender has not sent any weather packets the latest 10 day(s).
| Time | Temp. | Humidity | Pressure | Rain* | Wind** | Luminosity | Snow |
|---|---|---|---|---|---|---|---|
| 1777573198 | 25° C | 16% | 1014 hPa | 0 mm | - | 856 W/m² | - |
| 1777572598 | 25° C | 16% | 1014 hPa | 0 mm | - | 844 W/m² | - |
| 1777572000 | 25° C | 17% | 1014.2 hPa | 0 mm | - | 830 W/m² | - |
| 1777571399 | 25° C | 17% | 1014.4 hPa | 0 mm | - | 814 W/m² | - |
| 1777570800 | 24.44° C | 17% | 1014.4 hPa | 0 mm | - | 796 W/m² | - |
| 1777570199 | 24.44° C | 17% | 1014.4 hPa | 0 mm | - | 779 W/m² | - |
| 1777569599 | 23.89° C | 18% | 1014.5 hPa | 0 mm | - | 758 W/m² | - |
| 1777568998 | 23.89° C | 18% | 1014.5 hPa | 0 mm | - | 737 W/m² | - |
| 1777568400 | 23.33° C | 18% | 1014.5 hPa | 0 mm | - | 714 W/m² | - |
| 1777567798 | 22.78° C | 19% | 1014.5 hPa | 0 mm | - | 693 W/m² | - |
| 1777567199 | 23.33° C | 19% | 1014.6 hPa | 0 mm | - | 670 W/m² | - |
| 1777566598 | 22.78° C | 20% | 1014.7 hPa | 0 mm | - | 638 W/m² | - |
| 1777565999 | 22.22° C | 21% | 1014.7 hPa | 0 mm | - | 615 W/m² | - |
| 1777565399 | 21.67° C | 21% | 1014.7 hPa | 0 mm | - | 589 W/m² | - |
| 1777564798 | 21.67° C | 21% | 1014.7 hPa | 0 mm | - | 557 W/m² | - |
| 1777564198 | 21.11° C | 22% | 1014.7 hPa | 0 mm | - | 529 W/m² | - |
| 1777563595 | 20.56° C | 22% | 1014.6 hPa | 0 mm | - | 499 W/m² | - |
| 1777562998 | 20.56° C | 23% | 1014.7 hPa | 0 mm | - | 469 W/m² | - |
| 1777562397 | 20.56° C | 23% | 1014.6 hPa | 0 mm | - | 438 W/m² | - |
| 1777561798 | 20° C | 23% | 1014.7 hPa | 0 mm | - | 408 W/m² | - |
| 1777561201 | 20° C | 24% | 1014.7 hPa | 0 mm | - | 376 W/m² | - |
| 1777560598 | 19.44° C | 24% | 1014.6 hPa | 0 mm | - | 343 W/m² | - |
| 1777559999 | 18.89° C | 25% | 1014.5 hPa | 0 mm | - | 313 W/m² | - |
| 1777559398 | 17.78° C | 26% | 1014.5 hPa | 0 mm | - | 279 W/m² | - |
| 1777558799 | 16.11° C | 28% | 1014.5 hPa | 0 mm | - | 246 W/m² | - |
* Rain latest hour (hover to see other rain measurements)
** Current wind speed in m/s (hover to see current wind gust speed)